Regional Weather Roundup
Issued by NWS Newport/Morehead, NC

Current Version | Previous Version | Text Only | Print | Product List | Glossary On
Versions: 1 2 3 4 5 6 7 8 9 10 11 12 13 14 15 16 17 18 19 20 21 22 23 24 25 26 27 28 29 30 31 32 33 34 35 36 37 38 39 40 41 42 43 44 45 46 47 48 49 50
484 ASUS42 KMHX 172025 RWRMHX WEATHER ROUNDUP FOR EASTERN NORTH CAROLINA NATIONAL WEATHER SERVICE NEWPORT/MOREHEAD CITY NC 300 PM EST TUE JAN 17 2017 NOTE: "FAIR" INDICATES FEW OR NO CLOUDS BELOW 12,000 FEET WITH NO SIGNIFICANT WEATHER AND/OR OBSTRUCTIONS TO VISIBILITY NCZ015>017-031-032-045>047-102-103-172100- NORTH COAST CITY SKY/WX TMP DP RH WIND PRES REMARKS EDENTON PTSUNNY 62 55 79 SW7 30.13F ELIZABETH CITY LGT RAIN 57 52 83 S7 30.12F KITTY HAWK NOT AVBL MANTEO CLOUDY 54 48 82 S10 30.15F $$ NCZ045>047-081-094-103-104-172100- CENTRAL COAST CITY SKY/WX TMP DP RH WIND PRES REMARKS FRISCO MOSUNNY 59 48 67 SE5 30.16F $$ NCZ095-097-098-100-101-172100- SOUTHERN COAST CITY SKY/WX TMP DP RH WIND PRES REMARKS BEAUFORT SUNNY 67 59 75 SW6 30.17F CEDAR ISLAND NOT AVBL JACKSONVILLE PTSUNNY 71 59 65 SW9 30.15F PINEY ISLAND PTCLDY N/A N/A N/A NE5 30.15F WILMINGTON CLOUDY 72 58 61 W8 30.16F $$ NCZ011>013-027>030-043-044-078>080-089-090>093-098-172100- COASTAL PLAIN CITY SKY/WX TMP DP RH WIND PRES REMARKS AHOSKIE CLOUDY 59 54 83 CALM 30.10F CLINTON MOSUNNY 64 56 76 SW9 30.16S ELIZABETHTOWN MOSUNNY 65 56 75 S5 30.15F GOLDSBORO MOSUNNY 63 58 84 SW6 30.13F GREENVILLE MOSUNNY 63 54 72 SW7 30.15F HAVELOCK MOSUNNY 73 58 59 SW12 30.16F KENANSVILLE MOSUNNY 64 55 72 SW3 30.15F KINSTON NOT AVBL NEW BERN SUNNY 71 57 61 SW10 30.15F RICHLANDS SUNNY 66 57 72 S8 30.16F ROCKY MOUNT CLOUDY 59 54 83 SW9 30.14F WASHINGTON MOSUNNY 63 55 75 SW7 30.15F WHITEVILLE MOSUNNY 67 57 69 S7 30.16F $$ AMZ130-135-150-152-154-156-158-170-250-252-270-ANZ085-086-088-633-658-670-172100- MARINE OBSERVATIONS STATION/POSITION TIME TEMP WIND PRES WAVE SWELL AIR SEA DIR/SP/G HT/PER HT/PER (UTC) (F) (DEG/KT/KT) (MB) (FT/S) (FT/S) CHESAPEAKE LIGHT NOT AVBL 64 E VA BEACH 1950 54 56 230/ 10/ 12 1020.3 2/10 2/10 DUCK 2000 50 44 170/ 10/ 11 1019.8 2 E DUCK 2000 45 N/A 2/ 9 OREGON INLET 2000 53 48 160/ 7/ 11 1020.8 13E OREGON INLT NOT AVBL HATTERAS CG 2000 55 52 130/ 5/ 6 1020.9 DIAMOND BUOY 1950 64 73 200/ 4/ 6 1021.4 2/ 8 2/ 8 CAPE LOOKOUT 2000 67 220/ 6/ 8 1021.1 BEAUFORT LAB 2000 62 49 190/ 4/ 4 1020.5 30 SE NEW RVR IN 2008 62 62 280/ 4/ 6 1021.9 30 SE NEW RVR IN 2013 64 N/A 2/ 9 27 SE WRIGHTSVLE 2008 68 70 230/ 12/ 17 1021.5 5 SE WRIGHTSVLE 2008 60 150/ 6/ 8 1021.4 225 S CAPE HAT 1950 72 72 220/ 12/ 14 1023.7 3/ 8 2/ 8 41 SE CHARLESTON 1950 71 71 250/ 8/ 8 1021.8 2/ 9 2/ 9 $$

USA.gov is the U.S. government's official web portal to all federal, state and local government web resources and services.